768  
ASUS42 KMHX 280125  
RWRMHX  
WEATHER ROUNDUP FOR EASTERN NORTH CAROLINA  
NATIONAL WEATHER SERVICE NEWPORT/MOREHEAD CITY NC  
900 PM EDT MON JUL 27 2015  
 
NOTE: "FAIR" INDICATES FEW OR NO CLOUDS BELOW 12,000 FEET  
WITH NO SIGNIFICANT WEATHER AND/OR S TO VISIBILITY
 
 
NCZ015>017-031-032-045>047-102-103-280200-  
NORTH COAST  
 
CITY SKY/WX TMP DP RH WIND PRES REMARKS
 
EDENTON N/A 79 70 73 SE6 30.02R  
ELIZABETH CITY MOCLDY 79 70 74 S7 30.01R  
KITTY HAWK MOCLDY 78 68 70 CALM 30.01R  
MANTEO MOCLDY 78 70 77 SE3 30.03R  
 

 
 
NCZ045>047-081-094-103-104-280200-  
CENTRAL COAST  
 
CITY SKY/WX TMP DP RH WIND PRES REMARKS
 
FRISCO PTCLDY 80 68 66 SE10 30.01S  
SWANQUARTER N/A 79 N/A N/A SE5 29.97S  
 

 
 
NCZ095-097-098-100-101-280200-  
SOUTHERN COAST  
 
CITY SKY/WX TMP DP RH WIND PRES REMARKS
 
BEAUFORT CLOUDY 80 71 74 SE6 30.00R  
CEDAR ISLAND N/A 81 N/A N/A SE8 30.06R  
JACKSONVILLE MOCLDY 80 71 74 S6 29.99R  
PINEY ISLAND MOCLDY N/A N/A N/A SE5 30.00R  
WILMINGTON MOCLDY 81 72 74 SE7 29.98R  
 

 
 
NCZ011>013-027>030-043-044-078>080-089-090>093-098-280200-  
COASTAL PLAIN  
 
CITY SKY/WX TMP DP RH WIND PRES REMARKS
 
AHOSKIE MOCLDY 78 68 72 SE5 30.00R  
CLINTON PTCLDY 79 73 80 CALM 29.99S  
ELIZABETHTOWN PTCLDY 79 70 74 CALM 29.99R  
GOLDSBORO MOCLDY 82 74 77 SE6 29.97R  
GREENVILLE MOCLDY 81 72 74 SE5 30.02R  
HAVELOCK MOCLDY 78 71 79 CALM 30.01R  
KENANSVILLE PTCLDY 77 70 77 CALM 30.00S  
KINSTON MOCLDY 81 70 69 SE8 30.00R  
NEW BERN MOCLDY 77 71 82 CALM 30.01R  
RICHLANDS MOCLDY 79 68 69 CALM 30.00S  
ROCKY MOUNT CLEAR 81 71 71 VRB3 29.99R  
WASHINGTON MOCLDY 77 70 78 SE3 30.01R  
WHITEVILLE CLEAR 79 73 79 CALM 29.98R  
 

 
 
AMZ130-135-150-152-154-156-158-170-250-252-270-ANZ085-086-088-633-658-670-280200-  
MARINE OBSERVATIONS  
 
STATION/POSITION TIME TEMP WIND PRES WAVE SWELL
 
AIR SEA DIR/SP/G HT/PER HT/PER  
(UTC) (F) (DEG/KT/KT) (MB) (FT/S) (FT/S)  
CHESAPEAKE LIGHT 0100 80 170/ 16/ 17 1016.6  
64 E VA BEACH 0050 80 80 170/ 8/ 10 1016.2 2/11 2/11  
DUCK 0100 80 72 150/ 11/ 13 1015.4  
2 E DUCK 0011 81 N/A 2/12 2/12  
OREGON INLET 0100 78 82 140/ 4/ 6 1016.3  
13E OREGON INLT 0100 80 N/A 3/11 2/11  
HATTERAS CG 0100 81 83 120/ 7/ 10 1015.9  
DIAMOND BUOY NOT AVBL  
CAPE LOOKOUT 0100 81 120/ 10/ 11 1015.6  
BEAUFORT LAB 0100 81 81 140/ 8/ 8 1015.2  
30 SE NEW RVR IN NOT AVBL  
27 SE WRIGHTSVLE 0100 79 82 130/ 10/ 12 N/A  
5 SE WRIGHTSVLE 0008 82 81 130/ 10/ 14 1015.0  
225 S CAPE HAT 0050 81 82 260/ 16/ 21 1015.6 4/ 6 2/11  
41 SE CHARLESTON 0050 83 84 80/ 10/ 14 1013.3 3/ 6 3/ 6  
 

 
 
CLICK HERE TO GO TO PREVIOUS BULLETINS.

The Nexlab NC Page Main Text Page